TIANWANG 1A (TW-1A)
1 40928U 15051D   19278.77889218  .00003019  00000-0  74340-4 0  9997
2 40928  97.1375 307.6535 0012253  42.5436  45.9446 15.41290897225976
LAPAN A2
1 40931U 15052B   19278.56617482 -.00000094  00000-0 -10267-3 0  9990
2 40931   6.0142   0.3348 0016597 276.4982  83.4852 14.76615539217384
LQSAT
1 40958U 15057A   19278.78852790 -.00000004 +00000-0 +70365-5 0  9998
2 40958 097.8885 344.9812 0016868 249.5540 110.3858 14.73090690214879
CHUBUSAT 2
1 41338U 16012B   19278.87923170 +.00000334 +00000-0 +19265-4 0  9990
2 41338 031.0025 170.8535 0013670 105.2838 254.9309 15.00188118199324
CHUBUSAT 3
1 41339U 16012C   19278.83602878  .00000392  00000-0  23702-4 0  9991
2 41339  31.0107 169.0819 0013365 112.3837 247.8218 15.00361274199315
OUFTI-1
1 41458U 16025C   19278.89229711 +.00000701 +00000-0 +39819-4 0  9994
2 41458 098.1002 011.2889 0165546 350.3615 009.4445 15.06059420189009
E-STAR-2
1 41459U 16025D   19278.80232564  .00001519  00000-0  81377-4 0  9990
2 41459  98.1003  10.7931 0166614 351.9901   7.8657 15.05686576188963
AAUSAT 4
1 41460U 16025E   19278.83827382  .00001396  00000-0  73551-4 0  9991
2 41460  98.0950  12.3535 0156466 343.6386  15.9783 15.07661539189114
NUSAT 1
1 41557U 16033B   19278.86807628 +.00001163 +00000-0 +46070-4 0  9999
2 41557 097.4150 005.7295 0012100 272.2857 087.6996 15.27415586186751
BEESAT 4
1 41619U 16040W   19278.69603049 +.00001169 +00000-0 +52097-4 0  9990
2 41619 097.3565 338.8356 0011349 009.1818 350.9625 15.23341627170450
PRATHAM
1 41783U 16059A   19278.89206776 +.00000045 +00000-0 +17959-4 0  9990
2 41783 098.0558 335.9969 0034395 042.5023 317.8833 14.63012148161511
ALSAT 1N
1 41789U 16059G   19278.92414565 +.00000085 +00000-0 +25025-4 0  9994
2 41789 098.0591 338.2641 0028925 031.8860 328.4083 14.64265473161639
NAYIF 1
1 42017U 17008BX  19278.77172306  .00001336  00000-0  55146-4 0  9998
2 42017  97.3929 344.6957 0007413 134.8896 225.2945 15.25761485146551
MAX VALIER SAT
1 42778U 17036P   19278.92280722 +.00000808 +00000-0 +38163-4 0  9995
2 42778 097.3430 334.1227 0011969 193.1518 166.9408 15.22163728126855
